Aviation Digital Data Service (ADDS)

Output produced by METARs form (1243 UTC 22 February 2018)
found at http://www.aviationweather.gov/adds/metars/
 
LGAD 221220Z 20006KT 9999 SCT020 SCT080 17/07 Q1007
TAF LGAD 221100Z 2212/2221 14008KT 9999 SCT025 SCT080
       
LGAL 221220Z 04012KT 9999 FEW012 SCT020 11/06 Q1011
TAF LGAL 221100Z 2212/2221 04015KT 9999 SCT010 BKN020
       
LGAV 221220Z 19007KT 170V230 9999 SCT020 BKN060 15/09 Q1009 NOSIG
TAF LGAV 221100Z 2212/2312 19012KT 9999 SCT015 BKN030 
     PROB30 
     TEMPO 2212/2221 5000 RA 
     PROB40 2222/2306 3000 BR SCT004 
     BECMG 2218/2220 VRB05KT
       
LGBL 221220Z 20004KT 9999 -RA FEW010 BKN020 13/10 Q1009
TAF LGBL 221100Z 2212/2221 10010KT 9999 FEW015 BKN025 BKN080 
     PROB40 
     TEMPO 2212/2221 6000 RA
       
LGEL 221220Z 19005KT 9999 FEW018 SCT025 BKN070 17/11 Q1008
TAF LGEL 221100Z 2212/2312 VRB05KT 9999 FEW015 SCT025 
     PROB30 
     TEMPO 2212/2221 5000 RA SCT015 BKN025 
     PROB40 2221/2306 3000 BR SCT004
       
LGHI 221150Z 17004KT 100V220 9999 FEW018TCU SCT025 16/12 Q1009
TAF LGHI 221100Z 2212/2221 VRB05KT 9999 SCT020 
     TEMPO 2212/2221 5000 RA SCT010 BKN020 
     PROB30 
     TEMPO 2212/2215 3000 TSRA SCT010 FEW018CB BKN020
       
LGIO 221220Z /////KT 9999 BKN035 SCT060 13/06 Q1007
TAF LGIO 221100Z 2212/2221 VRB03KT 9999 FEW010 BKN025 OVC080 
     PROB40 
     TEMPO 2212/2218 7000 RA
       
LGIR 221220Z 06009KT 9999 FEW020 17/13 Q1009 NOSIG
TAF LGIR 221100Z 2212/2312 VRB05KT 9999 FEW018 SCT030
       
LGKC 221150Z 17012KT 9999 SCT008 BKN015 13/11 Q1009
TAF LGKC 221100Z 2212/2221 19010KT 9999 SCT020
       
LGKF 221150Z 15010KT 9999 SCT018 16/10 Q1008
TAF LGKF 221100Z 2212/2221 15010KT 9999 SCT015
       
LGKL 221220Z 17008KT 9999 SCT030 17/09 Q1007
TAF LGKL 221100Z 2212/2221 16010KT 8000 FEW010 SCT025 SCT080 
     PROB30 
     TEMPO 2212/2215 6000 RA 
     BECMG 2219/2221 33006KT 8000 FEW010
       
LGKO 221220Z /////KT 9999 FEW016TCU SCT025 15/11 Q1009
TAF LGKO 221100Z 2212/2312 13010KT 9999 SCT010 BKN025 
     PROB40 
     TEMPO 2212/2303 5000 RA 
     PROB30 
     TEMPO 2212/2218 4000 TSRA SCT010 FEW018CB BKN020 
     BECMG 2218/2220 VRB05KT 
     PROB30 2218/2304 2000 BR SCT004
       
LGKP 221220Z 23008KT 9999 SCT025 18/11 Q1009
TAF LGKP 221100Z 2212/2221 14007KT 9999 SCT020 
     BECMG 2213/2215 30008KT
       
LGKR 221220Z 15010KT 9999 SCT030 16/08 Q1006 NOSIG
TAF LGKR 221100Z 2212/2312 14015KT 9999 FEW020 SCT030
       
LGKV 221220Z 09009KT 9999 FEW015 BKN020 OVC070 11/04 Q1011
TAF LGKV 221100Z 2212/2221 08015KT 9999 SCT010 BKN025
       
LGKZ 221150Z 00000KT 9999 FEW005 SCT020 OVC070 07/05 Q1009
LGLM 221220Z 04011KT 9999 SCT010 BKN015 12/09 Q1010
TAF LGLM 221100Z 2212/2221 05014KT 9999 SCT010 BKN020
       
TAF LGLR 221100Z 2212/2221 08008KT 9999 FEW010 BKN025 BKN080 
     PROB30 
     TEMPO 2212/2221 7000 RA
       
LGMK 221220Z /////KT 9999 SCT025 16/11 Q1009
TAF LGMK 221100Z 2212/2221 VRB05KT 9999 FEW018 
     PROB30 
     TEMPO 2212/2218 5000 RA SCT015 BKN030
       
LGMT 221220Z 17006KT 120V240 9999 FEW016TCU SCT020 18/12 Q1009
TAF LGMT 221100Z 2212/2221 15015KT 9999 SCT020 
     PROB40 
     TEMPO 2212/2221 5000 RA 
     BECMG 2213/2215 VRB05KT
       
LGNX 220850Z 19007KT 9999 FEW020 17/12 Q1009
LGPA 221220Z AUTO 19006KT //// // ////// 17/09 Q1009 RE//
LGPZ 221220Z 19009KT 9999 SCT020 15/11 Q1008
TAF LGPZ 221100Z 2212/2312 14015KT 9999 FEW010 SCT020 
     PROB30 2222/2304 3000 BR SCT010
       
LGRP 221220Z /////KT 5000 -RA FEW010 SCT018TCU BKN020 11/10 Q1009 NOSIG
TAF LGRP 221100Z 2212/2312 12010KT 9999 FEW010 BKN020 
     TEMPO 2212/2224 4000 RA SCT010 BKN020 
     PROB40 
     TEMPO 2212/2218 1000 TSRA SCT010 FEW016CB BKN020
       
LGRX 221220Z 00000KT 9999 BKN030 15/09 Q1007
TAF LGRX 221100Z 2212/2221 VRB03KT 9999 SCT025 SCT080
       
LGSA 221220Z 12007KT 9999 FEW018TCU SCT020 17/12 Q1008
TAF LGSA 221100Z 2212/2312 VRB05KT 9999 FEW018 SCT030
       
LGSK 221150Z 34010KT 9999 FEW010 FEW020TCU 13/09 Q1009
TAF LGSK 221100Z 2212/2221 08015KT 9999 SCT025 
     PROB40 
     TEMPO 2212/2221 5000 RA
       
LGSM 221220Z 15003KT 9999 SCT020 16/12 Q1009
TAF LGSM 221100Z 2212/2221 14010KT 9999 SCT020 
     PROB40 
     TEMPO 2212/2221 5000 RA SCT010 BKN020 
     BECMG 2213/2215 VRB05KT 
     PROB30 
     TEMPO 2212/2215 3000 TSRA SCT010 FEW018CB BKN020
       
LGSO 221220Z AUTO 25006KT 200V280 //// // ////// 17/10 Q1009 RE//
LGSR 221220Z 02006KT 9999 SCT025 15/09 Q1009
TAF LGSR 221100Z 2212/2312 VRB05KT 9999 SCT020
       
TAF LGST 221100Z 2212/2221 VRB05KT 9999 SCT025
       
TAF LGSY 221100Z 2212/2221 07010KT 9999 FEW010 BKN025 
     PROB30 
     TEMPO 2212/2221 6000 RA
       
TAF LGTG 221100Z 2212/2221 VRB03KT 6000 FEW010 BKN025 BKN070 
     PROB40 
     TEMPO 2212/2221 5000 RA
       
TAF LGTL 221100Z 2212/2221 20008KT 9999 SCT020
       
LGTS 221220Z 27004KT 8000 4000SE BR SCT005 BKN020 10/07 Q1010 NOSIG
TAF LGTS 221100Z 2212/2312 VRB03KT 8000 SCT008 BKN030 
     PROB40 
     TEMPO 2303/2308 4000 BR SCT006 BKN020
       
LGZA 221150Z 13005KT 9999 SCT020 BKN070 16/10 Q1007
TAF LGZA 221100Z 2212/2221 16015KT 9999 SCT020
       
LGPZ 221220Z 19009KT 9999 SCT020 15/11 Q1008
TAF LGPZ 221100Z 2212/2312 14015KT 9999 FEW010 SCT020 
     PROB30 2222/2304 3000 BR SCT010
       
LGKC 221150Z 17012KT 9999 SCT008 BKN015 13/11 Q1009
TAF LGKC 221100Z 2212/2221 19010KT 9999 SCT020
       
LGKF 221150Z 15010KT 9999 SCT018 16/10 Q1008
TAF LGKF 221100Z 2212/2221 15010KT 9999 SCT015
       
LGKL 221220Z 17008KT 9999 SCT030 17/09 Q1007
TAF LGKL 221100Z 2212/2221 16010KT 8000 FEW010 SCT025 SCT080 
     PROB30 
     TEMPO 2212/2215 6000 RA 
     BECMG 2219/2221 33006KT 8000 FEW010
       
LGKO 221220Z /////KT 9999 FEW016TCU SCT025 15/11 Q1009
TAF LGKO 221100Z 2212/2312 13010KT 9999 SCT010 BKN025 
     PROB40 
     TEMPO 2212/2303 5000 RA 
     PROB30 
     TEMPO 2212/2218 4000 TSRA SCT010 FEW018CB BKN020 
     BECMG 2218/2220 VRB05KT 
     PROB30 2218/2304 2000 BR SCT004
       
LGKP 221220Z 23008KT 9999 SCT025 18/11 Q1009
TAF LGKP 221100Z 2212/2221 14007KT 9999 SCT020 
     BECMG 2213/2215 30008KT
       
LGKR 221220Z 15010KT 9999 SCT030 16/08 Q1006 NOSIG
TAF LGKR 221100Z 2212/2312 14015KT 9999 FEW020 SCT030
       
LGKV 221220Z 09009KT 9999 FEW015 BKN020 OVC070 11/04 Q1011
TAF LGKV 221100Z 2212/2221 08015KT 9999 SCT010 BKN025
       
LGKZ 221150Z 00000KT 9999 FEW005 SCT020 OVC070 07/05 Q1009
LGAD 221220Z 20006KT 9999 SCT020 SCT080 17/07 Q1007
TAF LGAD 221100Z 2212/2221 14008KT 9999 SCT025 SCT080
       
LGRX 221220Z 00000KT 9999 BKN030 15/09 Q1007
TAF LGRX 221100Z 2212/2221 VRB03KT 9999 SCT025 SCT080
       
LGHI 221150Z 17004KT 100V220 9999 FEW018TCU SCT025 16/12 Q1009
TAF LGHI 221100Z 2212/2221 VRB05KT 9999 SCT020 
     TEMPO 2212/2221 5000 RA SCT010 BKN020 
     PROB30 
     TEMPO 2212/2215 3000 TSRA SCT010 FEW018CB BKN020
       
LGRP 221220Z /////KT 5000 -RA FEW010 SCT018TCU BKN020 11/10 Q1009 NOSIG
TAF LGRP 221100Z 2212/2312 12010KT 9999 FEW010 BKN020 
     TEMPO 2212/2224 4000 RA SCT010 BKN020 
     PROB40 
     TEMPO 2212/2218 1000 TSRA SCT010 FEW016CB BKN020
       
LGAL 221220Z 04012KT 9999 FEW012 SCT020 11/06 Q1011
TAF LGAL 221100Z 2212/2221 04015KT 9999 SCT010 BKN020
       
LGEL 221220Z 19005KT 9999 FEW018 SCT025 BKN070 17/11 Q1008
TAF LGEL 221100Z 2212/2312 VRB05KT 9999 FEW015 SCT025 
     PROB30 
     TEMPO 2212/2221 5000 RA SCT015 BKN025 
     PROB40 2221/2306 3000 BR SCT004
       
LGAV 221220Z 19007KT 170V230 9999 SCT020 BKN060 15/09 Q1009 NOSIG
TAF LGAV 221100Z 2212/2312 19012KT 9999 SCT015 BKN030 
     PROB30 
     TEMPO 2212/2221 5000 RA 
     PROB40 2222/2306 3000 BR SCT004 
     BECMG 2218/2220 VRB05KT
       
LGKZ 221150Z 00000KT 9999 FEW005 SCT020 OVC070 07/05 Q1009
LGIO 221220Z /////KT 9999 BKN035 SCT060 13/06 Q1007
TAF LGIO 221100Z 2212/2221 VRB03KT 9999 FEW010 BKN025 OVC080 
     PROB40 
     TEMPO 2212/2218 7000 RA
       
LGKR 221220Z 15010KT 9999 SCT030 16/08 Q1006 NOSIG
TAF LGKR 221100Z 2212/2312 14015KT 9999 FEW020 SCT030
       
LGKL 221220Z 17008KT 9999 SCT030 17/09 Q1007
TAF LGKL 221100Z 2212/2221 16010KT 8000 FEW010 SCT025 SCT080 
     PROB30 
     TEMPO 2212/2215 6000 RA 
     BECMG 2219/2221 33006KT 8000 FEW010
       
LGKP 221220Z 23008KT 9999 SCT025 18/11 Q1009
TAF LGKP 221100Z 2212/2221 14007KT 9999 SCT020 
     BECMG 2213/2215 30008KT
       
TAF LGTL 221100Z 2212/2221 20008KT 9999 SCT020
       
LGKF 221150Z 15010KT 9999 SCT018 16/10 Q1008
TAF LGKF 221100Z 2212/2221 15010KT 9999 SCT015
       
LGKC 221150Z 17012KT 9999 SCT008 BKN015 13/11 Q1009
TAF LGKC 221100Z 2212/2221 19010KT 9999 SCT020
       
LGKO 221220Z /////KT 9999 FEW016TCU SCT025 15/11 Q1009
TAF LGKO 221100Z 2212/2312 13010KT 9999 SCT010 BKN025 
     PROB40 
     TEMPO 2212/2303 5000 RA 
     PROB30 
     TEMPO 2212/2218 4000 TSRA SCT010 FEW018CB BKN020 
     BECMG 2218/2220 VRB05KT 
     PROB30 2218/2304 2000 BR SCT004
       
TAF LGLR 221100Z 2212/2221 08008KT 9999 FEW010 BKN025 BKN080 
     PROB30 
     TEMPO 2212/2221 7000 RA
       
LGLM 221220Z 04011KT 9999 SCT010 BKN015 12/09 Q1010
TAF LGLM 221100Z 2212/2221 05014KT 9999 SCT010 BKN020
       
LGTS 221220Z 27004KT 8000 4000SE BR SCT005 BKN020 10/07 Q1010 NOSIG
TAF LGTS 221100Z 2212/2312 VRB03KT 8000 SCT008 BKN030 
     PROB40 
     TEMPO 2303/2308 4000 BR SCT006 BKN020
       
LGKV 221220Z 09009KT 9999 FEW015 BKN020 OVC070 11/04 Q1011
TAF LGKV 221100Z 2212/2221 08015KT 9999 SCT010 BKN025
       
LGMK 221220Z /////KT 9999 SCT025 16/11 Q1009
TAF LGMK 221100Z 2212/2221 VRB05KT 9999 FEW018 
     PROB30 
     TEMPO 2212/2218 5000 RA SCT015 BKN030
       
LGMT 221220Z 17006KT 120V240 9999 FEW016TCU SCT020 18/12 Q1009
TAF LGMT 221100Z 2212/2221 15015KT 9999 SCT020 
     PROB40 
     TEMPO 2212/2221 5000 RA 
     BECMG 2213/2215 VRB05KT
       
LGBL 221220Z 20004KT 9999 -RA FEW010 BKN020 13/10 Q1009
TAF LGBL 221100Z 2212/2221 10010KT 9999 FEW015 BKN025 BKN080 
     PROB40 
     TEMPO 2212/2221 6000 RA
       
LGIR 221220Z 06009KT 9999 FEW020 17/13 Q1009 NOSIG
TAF LGIR 221100Z 2212/2312 VRB05KT 9999 FEW018 SCT030
       
LGAD 221220Z 20006KT 9999 SCT020 SCT080 17/07 Q1007
TAF LGAD 221100Z 2212/2221 14008KT 9999 SCT025 SCT080
       
LGAL 221220Z 04012KT 9999 FEW012 SCT020 11/06 Q1011
TAF LGAL 221100Z 2212/2221 04015KT 9999 SCT010 BKN020
       
LGAV 221220Z 19007KT 170V230 9999 SCT020 BKN060 15/09 Q1009 NOSIG
TAF LGAV 221100Z 2212/2312 19012KT 9999 SCT015 BKN030 
     PROB30 
     TEMPO 2212/2221 5000 RA 
     PROB40 2222/2306 3000 BR SCT004 
     BECMG 2218/2220 VRB05KT
       
LGBL 221220Z 20004KT 9999 -RA FEW010 BKN020 13/10 Q1009
TAF LGBL 221100Z 2212/2221 10010KT 9999 FEW015 BKN025 BKN080 
     PROB40 
     TEMPO 2212/2221 6000 RA
       
LGEL 221220Z 19005KT 9999 FEW018 SCT025 BKN070 17/11 Q1008
TAF LGEL 221100Z 2212/2312 VRB05KT 9999 FEW015 SCT025 
     PROB30 
     TEMPO 2212/2221 5000 RA SCT015 BKN025 
     PROB40 2221/2306 3000 BR SCT004
       
LGHI 221150Z 17004KT 100V220 9999 FEW018TCU SCT025 16/12 Q1009
TAF LGHI 221100Z 2212/2221 VRB05KT 9999 SCT020 
     TEMPO 2212/2221 5000 RA SCT010 BKN020 
     PROB30 
     TEMPO 2212/2215 3000 TSRA SCT010 FEW018CB BKN020
       
LGIO 221220Z /////KT 9999 BKN035 SCT060 13/06 Q1007
TAF LGIO 221100Z 2212/2221 VRB03KT 9999 FEW010 BKN025 OVC080 
     PROB40 
     TEMPO 2212/2218 7000 RA
       
LGIR 221220Z 06009KT 9999 FEW020 17/13 Q1009 NOSIG
TAF LGIR 221100Z 2212/2312 VRB05KT 9999 FEW018 SCT030
       
LGKC 221150Z 17012KT 9999 SCT008 BKN015 13/11 Q1009
TAF LGKC 221100Z 2212/2221 19010KT 9999 SCT020
       
LGKF 221150Z 15010KT 9999 SCT018 16/10 Q1008
TAF LGKF 221100Z 2212/2221 15010KT 9999 SCT015
       
LGKL 221220Z 17008KT 9999 SCT030 17/09 Q1007
TAF LGKL 221100Z 2212/2221 16010KT 8000 FEW010 SCT025 SCT080 
     PROB30 
     TEMPO 2212/2215 6000 RA 
     BECMG 2219/2221 33006KT 8000 FEW010
       
LGKO 221220Z /////KT 9999 FEW016TCU SCT025 15/11 Q1009
TAF LGKO 221100Z 2212/2312 13010KT 9999 SCT010 BKN025 
     PROB40 
     TEMPO 2212/2303 5000 RA 
     PROB30 
     TEMPO 2212/2218 4000 TSRA SCT010 FEW018CB BKN020 
     BECMG 2218/2220 VRB05KT 
     PROB30 2218/2304 2000 BR SCT004
       
LGKP 221220Z 23008KT 9999 SCT025 18/11 Q1009
TAF LGKP 221100Z 2212/2221 14007KT 9999 SCT020 
     BECMG 2213/2215 30008KT
       
LGKR 221220Z 15010KT 9999 SCT030 16/08 Q1006 NOSIG
TAF LGKR 221100Z 2212/2312 14015KT 9999 FEW020 SCT030
       
LGKV 221220Z 09009KT 9999 FEW015 BKN020 OVC070 11/04 Q1011
TAF LGKV 221100Z 2212/2221 08015KT 9999 SCT010 BKN025
       
LGKZ 221150Z 00000KT 9999 FEW005 SCT020 OVC070 07/05 Q1009
LGLM 221220Z 04011KT 9999 SCT010 BKN015 12/09 Q1010
TAF LGLM 221100Z 2212/2221 05014KT 9999 SCT010 BKN020
       
TAF LGLR 221100Z 2212/2221 08008KT 9999 FEW010 BKN025 BKN080 
     PROB30 
     TEMPO 2212/2221 7000 RA
       
LGMK 221220Z /////KT 9999 SCT025 16/11 Q1009
TAF LGMK 221100Z 2212/2221 VRB05KT 9999 FEW018 
     PROB30 
     TEMPO 2212/2218 5000 RA SCT015 BKN030
       
LGMT 221220Z 17006KT 120V240 9999 FEW016TCU SCT020 18/12 Q1009
TAF LGMT 221100Z 2212/2221 15015KT 9999 SCT020 
     PROB40 
     TEMPO 2212/2221 5000 RA 
     BECMG 2213/2215 VRB05KT
       
LGNX 220850Z 19007KT 9999 FEW020 17/12 Q1009
LGPA 221220Z AUTO 19006KT //// // ////// 17/09 Q1009 RE//
LGPZ 221220Z 19009KT 9999 SCT020 15/11 Q1008
TAF LGPZ 221100Z 2212/2312 14015KT 9999 FEW010 SCT020 
     PROB30 2222/2304 3000 BR SCT010
       
LGRP 221220Z /////KT 5000 -RA FEW010 SCT018TCU BKN020 11/10 Q1009 NOSIG
TAF LGRP 221100Z 2212/2312 12010KT 9999 FEW010 BKN020 
     TEMPO 2212/2224 4000 RA SCT010 BKN020 
     PROB40 
     TEMPO 2212/2218 1000 TSRA SCT010 FEW016CB BKN020
       
LGRX 221220Z 00000KT 9999 BKN030 15/09 Q1007
TAF LGRX 221100Z 2212/2221 VRB03KT 9999 SCT025 SCT080
       
LGSA 221220Z 12007KT 9999 FEW018TCU SCT020 17/12 Q1008
TAF LGSA 221100Z 2212/2312 VRB05KT 9999 FEW018 SCT030
       
LGSK 221150Z 34010KT 9999 FEW010 FEW020TCU 13/09 Q1009
TAF LGSK 221100Z 2212/2221 08015KT 9999 SCT025 
     PROB40 
     TEMPO 2212/2221 5000 RA
       
LGSM 221220Z 15003KT 9999 SCT020 16/12 Q1009
TAF LGSM 221100Z 2212/2221 14010KT 9999 SCT020 
     PROB40 
     TEMPO 2212/2221 5000 RA SCT010 BKN020 
     BECMG 2213/2215 VRB05KT 
     PROB30 
     TEMPO 2212/2215 3000 TSRA SCT010 FEW018CB BKN020
       
LGSO 221220Z AUTO 25006KT 200V280 //// // ////// 17/10 Q1009 RE//
LGSR 221220Z 02006KT 9999 SCT025 15/09 Q1009
TAF LGSR 221100Z 2212/2312 VRB05KT 9999 SCT020
       
TAF LGST 221100Z 2212/2221 VRB05KT 9999 SCT025
       
TAF LGSY 221100Z 2212/2221 07010KT 9999 FEW010 BKN025 
     PROB30 
     TEMPO 2212/2221 6000 RA
       
TAF LGTG 221100Z 2212/2221 VRB03KT 6000 FEW010 BKN025 BKN070 
     PROB40 
     TEMPO 2212/2221 5000 RA
       
TAF LGTL 221100Z 2212/2221 20008KT 9999 SCT020
       
LGTS 221220Z 27004KT 8000 4000SE BR SCT005 BKN020 10/07 Q1010 NOSIG
TAF LGTS 221100Z 2212/2312 VRB03KT 8000 SCT008 BKN030 
     PROB40 
     TEMPO 2303/2308 4000 BR SCT006 BKN020
       
LGZA 221150Z 13005KT 9999 SCT020 BKN070 16/10 Q1007
TAF LGZA 221100Z 2212/2221 16015KT 9999 SCT020
       
LGAD 221220Z 20006KT 9999 SCT020 SCT080 17/07 Q1007
TAF LGAD 221100Z 2212/2221 14008KT 9999 SCT025 SCT080
       
LGAL 221220Z 04012KT 9999 FEW012 SCT020 11/06 Q1011
TAF LGAL 221100Z 2212/2221 04015KT 9999 SCT010 BKN020
       
LGAV 221220Z 19007KT 170V230 9999 SCT020 BKN060 15/09 Q1009 NOSIG
TAF LGAV 221100Z 2212/2312 19012KT 9999 SCT015 BKN030 
     PROB30 
     TEMPO 2212/2221 5000 RA 
     PROB40 2222/2306 3000 BR SCT004 
     BECMG 2218/2220 VRB05KT
       
LGBL 221220Z 20004KT 9999 -RA FEW010 BKN020 13/10 Q1009
TAF LGBL 221100Z 2212/2221 10010KT 9999 FEW015 BKN025 BKN080 
     PROB40 
     TEMPO 2212/2221 6000 RA
       
LGEL 221220Z 19005KT 9999 FEW018 SCT025 BKN070 17/11 Q1008
TAF LGEL 221100Z 2212/2312 VRB05KT 9999 FEW015 SCT025 
     PROB30 
     TEMPO 2212/2221 5000 RA SCT015 BKN025 
     PROB40 2221/2306 3000 BR SCT004
       
LGHI 221150Z 17004KT 100V220 9999 FEW018TCU SCT025 16/12 Q1009
TAF LGHI 221100Z 2212/2221 VRB05KT 9999 SCT020 
     TEMPO 2212/2221 5000 RA SCT010 BKN020 
     PROB30 
     TEMPO 2212/2215 3000 TSRA SCT010 FEW018CB BKN020
       
LGIO 221220Z /////KT 9999 BKN035 SCT060 13/06 Q1007
TAF LGIO 221100Z 2212/2221 VRB03KT 9999 FEW010 BKN025 OVC080 
     PROB40 
     TEMPO 2212/2218 7000 RA
       
LGIR 221220Z 06009KT 9999 FEW020 17/13 Q1009 NOSIG
TAF LGIR 221100Z 2212/2312 VRB05KT 9999 FEW018 SCT030
       
LGKC 221150Z 17012KT 9999 SCT008 BKN015 13/11 Q1009
TAF LGKC 221100Z 2212/2221 19010KT 9999 SCT020
       
LGKF 221150Z 15010KT 9999 SCT018 16/10 Q1008
TAF LGKF 221100Z 2212/2221 15010KT 9999 SCT015
       
LGKL 221220Z 17008KT 9999 SCT030 17/09 Q1007
TAF LGKL 221100Z 2212/2221 16010KT 8000 FEW010 SCT025 SCT080 
     PROB30 
     TEMPO 2212/2215 6000 RA 
     BECMG 2219/2221 33006KT 8000 FEW010
       
LGKO 221220Z /////KT 9999 FEW016TCU SCT025 15/11 Q1009
TAF LGKO 221100Z 2212/2312 13010KT 9999 SCT010 BKN025 
     PROB40 
     TEMPO 2212/2303 5000 RA 
     PROB30 
     TEMPO 2212/2218 4000 TSRA SCT010 FEW018CB BKN020 
     BECMG 2218/2220 VRB05KT 
     PROB30 2218/2304 2000 BR SCT004
       
LGKP 221220Z 23008KT 9999 SCT025 18/11 Q1009
TAF LGKP 221100Z 2212/2221 14007KT 9999 SCT020 
     BECMG 2213/2215 30008KT
       
LGKR 221220Z 15010KT 9999 SCT030 16/08 Q1006 NOSIG
TAF LGKR 221100Z 2212/2312 14015KT 9999 FEW020 SCT030
       
LGKV 221220Z 09009KT 9999 FEW015 BKN020 OVC070 11/04 Q1011
TAF LGKV 221100Z 2212/2221 08015KT 9999 SCT010 BKN025
       
LGKZ 221150Z 00000KT 9999 FEW005 SCT020 OVC070 07/05 Q1009
LGLM 221220Z 04011KT 9999 SCT010 BKN015 12/09 Q1010
TAF LGLM 221100Z 2212/2221 05014KT 9999 SCT010 BKN020
       
TAF LGLR 221100Z 2212/2221 08008KT 9999 FEW010 BKN025 BKN080 
     PROB30 
     TEMPO 2212/2221 7000 RA
       
LGMK 221220Z /////KT 9999 SCT025 16/11 Q1009
TAF LGMK 221100Z 2212/2221 VRB05KT 9999 FEW018 
     PROB30 
     TEMPO 2212/2218 5000 RA SCT015 BKN030
       
LGMT 221220Z 17006KT 120V240 9999 FEW016TCU SCT020 18/12 Q1009
TAF LGMT 221100Z 2212/2221 15015KT 9999 SCT020 
     PROB40 
     TEMPO 2212/2221 5000 RA 
     BECMG 2213/2215 VRB05KT
       
LGNX 220850Z 19007KT 9999 FEW020 17/12 Q1009
LGPA 221220Z AUTO 19006KT //// // ////// 17/09 Q1009 RE//
LGPZ 221220Z 19009KT 9999 SCT020 15/11 Q1008
TAF LGPZ 221100Z 2212/2312 14015KT 9999 FEW010 SCT020 
     PROB30 2222/2304 3000 BR SCT010
       
LGRP 221220Z /////KT 5000 -RA FEW010 SCT018TCU BKN020 11/10 Q1009 NOSIG
TAF LGRP 221100Z 2212/2312 12010KT 9999 FEW010 BKN020 
     TEMPO 2212/2224 4000 RA SCT010 BKN020 
     PROB40 
     TEMPO 2212/2218 1000 TSRA SCT010 FEW016CB BKN020
       
LGRX 221220Z 00000KT 9999 BKN030 15/09 Q1007
TAF LGRX 221100Z 2212/2221 VRB03KT 9999 SCT025 SCT080
       
LGSA 221220Z 12007KT 9999 FEW018TCU SCT020 17/12 Q1008
TAF LGSA 221100Z 2212/2312 VRB05KT 9999 FEW018 SCT030
       
LGSK 221150Z 34010KT 9999 FEW010 FEW020TCU 13/09 Q1009
TAF LGSK 221100Z 2212/2221 08015KT 9999 SCT025 
     PROB40 
     TEMPO 2212/2221 5000 RA
       
LGSM 221220Z 15003KT 9999 SCT020 16/12 Q1009
TAF LGSM 221100Z 2212/2221 14010KT 9999 SCT020 
     PROB40 
     TEMPO 2212/2221 5000 RA SCT010 BKN020 
     BECMG 2213/2215 VRB05KT 
     PROB30 
     TEMPO 2212/2215 3000 TSRA SCT010 FEW018CB BKN020
       
LGSO 221220Z AUTO 25006KT 200V280 //// // ////// 17/10 Q1009 RE//
LGSR 221220Z 02006KT 9999 SCT025 15/09 Q1009
TAF LGSR 221100Z 2212/2312 VRB05KT 9999 SCT020
       
TAF LGST 221100Z 2212/2221 VRB05KT 9999 SCT025
       
TAF LGSY 221100Z 2212/2221 07010KT 9999 FEW010 BKN025 
     PROB30 
     TEMPO 2212/2221 6000 RA
       
TAF LGTG 221100Z 2212/2221 VRB03KT 6000 FEW010 BKN025 BKN070 
     PROB40 
     TEMPO 2212/2221 5000 RA
       
TAF LGTL 221100Z 2212/2221 20008KT 9999 SCT020
       
LGTS 221220Z 27004KT 8000 4000SE BR SCT005 BKN020 10/07 Q1010 NOSIG
TAF LGTS 221100Z 2212/2312 VRB03KT 8000 SCT008 BKN030 
     PROB40 
     TEMPO 2303/2308 4000 BR SCT006 BKN020
       
LGZA 221150Z 13005KT 9999 SCT020 BKN070 16/10 Q1007
TAF LGZA 221100Z 2212/2221 16015KT 9999 SCT020
       
LGSM 221220Z 15003KT 9999 SCT020 16/12 Q1009
TAF LGSM 221100Z 2212/2221 14010KT 9999 SCT020 
     PROB40 
     TEMPO 2212/2221 5000 RA SCT010 BKN020 
     BECMG 2213/2215 VRB05KT 
     PROB30 
     TEMPO 2212/2215 3000 TSRA SCT010 FEW018CB BKN020
       
LGSR 221220Z 02006KT 9999 SCT025 15/09 Q1009
TAF LGSR 221100Z 2212/2312 VRB05KT 9999 SCT020
       
LGSK 221150Z 34010KT 9999 FEW010 FEW020TCU 13/09 Q1009
TAF LGSK 221100Z 2212/2221 08015KT 9999 SCT025 
     PROB40 
     TEMPO 2212/2221 5000 RA
       
TAF LGSY 221100Z 2212/2221 07010KT 9999 FEW010 BKN025 
     PROB30 
     TEMPO 2212/2221 6000 RA
       
LGSA 221220Z 12007KT 9999 FEW018TCU SCT020 17/12 Q1008
TAF LGSA 221100Z 2212/2312 VRB05KT 9999 FEW018 SCT030
       
LGSO 221220Z AUTO 25006KT 200V280 //// // ////// 17/10 Q1009 RE//
TAF LGTG 221100Z 2212/2221 VRB03KT 6000 FEW010 BKN025 BKN070 
     PROB40 
     TEMPO 2212/2221 5000 RA
       
LGAD 221220Z 20006KT 9999 SCT020 SCT080 17/07 Q1007
TAF LGAD 221100Z 2212/2221 14008KT 9999 SCT025 SCT080
       
LGAL 221220Z 04012KT 9999 FEW012 SCT020 11/06 Q1011
TAF LGAL 221100Z 2212/2221 04015KT 9999 SCT010 BKN020
       
LGAV 221220Z 19007KT 170V230 9999 SCT020 BKN060 15/09 Q1009 NOSIG
TAF LGAV 221100Z 2212/2312 19012KT 9999 SCT015 BKN030 
     PROB30 
     TEMPO 2212/2221 5000 RA 
     PROB40 2222/2306 3000 BR SCT004 
     BECMG 2218/2220 VRB05KT
       
LGBL 221220Z 20004KT 9999 -RA FEW010 BKN020 13/10 Q1009
TAF LGBL 221100Z 2212/2221 10010KT 9999 FEW015 BKN025 BKN080 
     PROB40 
     TEMPO 2212/2221 6000 RA
       
LGEL 221220Z 19005KT 9999 FEW018 SCT025 BKN070 17/11 Q1008
TAF LGEL 221100Z 2212/2312 VRB05KT 9999 FEW015 SCT025 
     PROB30 
     TEMPO 2212/2221 5000 RA SCT015 BKN025 
     PROB40 2221/2306 3000 BR SCT004
       
LGHI 221150Z 17004KT 100V220 9999 FEW018TCU SCT025 16/12 Q1009
TAF LGHI 221100Z 2212/2221 VRB05KT 9999 SCT020 
     TEMPO 2212/2221 5000 RA SCT010 BKN020 
     PROB30 
     TEMPO 2212/2215 3000 TSRA SCT010 FEW018CB BKN020
       
LGIO 221220Z /////KT 9999 BKN035 SCT060 13/06 Q1007
TAF LGIO 221100Z 2212/2221 VRB03KT 9999 FEW010 BKN025 OVC080 
     PROB40 
     TEMPO 2212/2218 7000 RA
       
LGIR 221220Z 06009KT 9999 FEW020 17/13 Q1009 NOSIG
TAF LGIR 221100Z 2212/2312 VRB05KT 9999 FEW018 SCT030
       
LGKC 221150Z 17012KT 9999 SCT008 BKN015 13/11 Q1009
TAF LGKC 221100Z 2212/2221 19010KT 9999 SCT020
       
LGKF 221150Z 15010KT 9999 SCT018 16/10 Q1008
TAF LGKF 221100Z 2212/2221 15010KT 9999 SCT015
       
LGKL 221220Z 17008KT 9999 SCT030 17/09 Q1007
TAF LGKL 221100Z 2212/2221 16010KT 8000 FEW010 SCT025 SCT080 
     PROB30 
     TEMPO 2212/2215 6000 RA 
     BECMG 2219/2221 33006KT 8000 FEW010
       
LGKO 221220Z /////KT 9999 FEW016TCU SCT025 15/11 Q1009
TAF LGKO 221100Z 2212/2312 13010KT 9999 SCT010 BKN025 
     PROB40 
     TEMPO 2212/2303 5000 RA 
     PROB30 
     TEMPO 2212/2218 4000 TSRA SCT010 FEW018CB BKN020 
     BECMG 2218/2220 VRB05KT 
     PROB30 2218/2304 2000 BR SCT004
       
LGKP 221220Z 23008KT 9999 SCT025 18/11 Q1009
TAF LGKP 221100Z 2212/2221 14007KT 9999 SCT020 
     BECMG 2213/2215 30008KT
       
LGKR 221220Z 15010KT 9999 SCT030 16/08 Q1006 NOSIG
TAF LGKR 221100Z 2212/2312 14015KT 9999 FEW020 SCT030
       
LGKV 221220Z 09009KT 9999 FEW015 BKN020 OVC070 11/04 Q1011
TAF LGKV 221100Z 2212/2221 08015KT 9999 SCT010 BKN025
       
LGKZ 221150Z 00000KT 9999 FEW005 SCT020 OVC070 07/05 Q1009
LGLM 221220Z 04011KT 9999 SCT010 BKN015 12/09 Q1010
TAF LGLM 221100Z 2212/2221 05014KT 9999 SCT010 BKN020
       
TAF LGLR 221100Z 2212/2221 08008KT 9999 FEW010 BKN025 BKN080 
     PROB30 
     TEMPO 2212/2221 7000 RA
       
LGMK 221220Z /////KT 9999 SCT025 16/11 Q1009
TAF LGMK 221100Z 2212/2221 VRB05KT 9999 FEW018 
     PROB30 
     TEMPO 2212/2218 5000 RA SCT015 BKN030
       
LGMT 221220Z 17006KT 120V240 9999 FEW016TCU SCT020 18/12 Q1009
TAF LGMT 221100Z 2212/2221 15015KT 9999 SCT020 
     PROB40 
     TEMPO 2212/2221 5000 RA 
     BECMG 2213/2215 VRB05KT
       
LGNX 220850Z 19007KT 9999 FEW020 17/12 Q1009
LGPA 221220Z AUTO 19006KT //// // ////// 17/09 Q1009 RE//
LGPZ 221220Z 19009KT 9999 SCT020 15/11 Q1008
TAF LGPZ 221100Z 2212/2312 14015KT 9999 FEW010 SCT020 
     PROB30 2222/2304 3000 BR SCT010
       
LGRP 221220Z /////KT 5000 -RA FEW010 SCT018TCU BKN020 11/10 Q1009 NOSIG
TAF LGRP 221100Z 2212/2312 12010KT 9999 FEW010 BKN020 
     TEMPO 2212/2224 4000 RA SCT010 BKN020 
     PROB40 
     TEMPO 2212/2218 1000 TSRA SCT010 FEW016CB BKN020
       
LGRX 221220Z 00000KT 9999 BKN030 15/09 Q1007
TAF LGRX 221100Z 2212/2221 VRB03KT 9999 SCT025 SCT080
       
LGSA 221220Z 12007KT 9999 FEW018TCU SCT020 17/12 Q1008
TAF LGSA 221100Z 2212/2312 VRB05KT 9999 FEW018 SCT030
       
LGSK 221150Z 34010KT 9999 FEW010 FEW020TCU 13/09 Q1009
TAF LGSK 221100Z 2212/2221 08015KT 9999 SCT025 
     PROB40 
     TEMPO 2212/2221 5000 RA
       
LGSM 221220Z 15003KT 9999 SCT020 16/12 Q1009
TAF LGSM 221100Z 2212/2221 14010KT 9999 SCT020 
     PROB40 
     TEMPO 2212/2221 5000 RA SCT010 BKN020 
     BECMG 2213/2215 VRB05KT 
     PROB30 
     TEMPO 2212/2215 3000 TSRA SCT010 FEW018CB BKN020
       
LGSO 221220Z AUTO 25006KT 200V280 //// // ////// 17/10 Q1009 RE//
LGSR 221220Z 02006KT 9999 SCT025 15/09 Q1009
TAF LGSR 221100Z 2212/2312 VRB05KT 9999 SCT020
       
TAF LGST 221100Z 2212/2221 VRB05KT 9999 SCT025
       
TAF LGSY 221100Z 2212/2221 07010KT 9999 FEW010 BKN025 
     PROB30 
     TEMPO 2212/2221 6000 RA
       
TAF LGTG 221100Z 2212/2221 VRB03KT 6000 FEW010 BKN025 BKN070 
     PROB40 
     TEMPO 2212/2221 5000 RA
       
TAF LGTL 221100Z 2212/2221 20008KT 9999 SCT020
       
LGTS 221220Z 27004KT 8000 4000SE BR SCT005 BKN020 10/07 Q1010 NOSIG
TAF LGTS 221100Z 2212/2312 VRB03KT 8000 SCT008 BKN030 
     PROB40 
     TEMPO 2303/2308 4000 BR SCT006 BKN020
       
LGZA 221150Z 13005KT 9999 SCT020 BKN070 16/10 Q1007
TAF LGZA 221100Z 2212/2221 16015KT 9999 SCT020
       
LGZA 221150Z 13005KT 9999 SCT020 BKN070 16/10 Q1007
TAF LGZA 221100Z 2212/2221 16015KT 9999 SCT020